DECAYED

STARLINK-6093, 56099 (Decayed)

Orbit data source: Space-Track

STARLINK-6093, 56099 was a payload satellite owned by SpaceX/Seattle (US) in LEO that was launched on Wed, 29 Mar 2023 UTC via an FALCON 9 launch vehicle from the Air Force Eastern Test Range (AFETR). Payload-class satellites include a variety of spacecraft equipped with specific instruments for various scientific and technological missions. These include communications satellites like Starlink; space stations such as the ISS; scientific satellites like the Hubble; Earth observation satellites from companies like Planet Labs, Umbra, and HawkEye 360; GPS; miniature CubeSats for education and research; and military/defense satellites.

Not visible in the next 10 days
Identifier
56099, 2023-046G
Orbit
Decayed
Country
Flag of USUS
Related business
Manufacturer
SpaceX/Seattle
Mission
Decayed Commercial Communications
Bus & Motor
STARLINK, Unknown motor
Mass
305 kg wet, ~290 kg dry
Launch date (UTC)
2023-03-29 (3 years ago)
Launch vehicle
FALCON 9
Launch site
Air Force Eastern Test Range (AFETR)
Object type
Payload
Rocket body
Debris
Shape & HBR
Box + 1 Pan, 10.1 m
Radar Cross Section
11.087 m², Large (>1 m²)

Expand to show TLE details & history
Last TLE update: 1 year ago

TLE from 1 year ago
0 STARLINK-6093
1 56099U 23046G   25176.13828236  .04302582  91066-5  61295-3 0  9995
2 56099  42.9938  86.2521 0011762 235.3878 275.2073 16.33588613124213
Epoch: 2025-06-25T03:19Z
TLE epoch observation values (Epoch: 2025-06-25T03:19:07.595Z)
Latitude
19.7086°
Longitude
-79.51259°
Altitude
181.517 km
Speed
7.802 km/s
True Right ascension
16h 15m 10s
True Declination
19° 35' 24"
Sunlit
Object was in full shadow at epoch
Visualization orbit readout
Latitude
Unknown
Longitude
Unknown
Altitude
Unknown
Speed
Unknown
Apparent Right ascension
Unknown
Apparent Declination
Unknown
Sunlit
N/A
Visualization observer readout
Local Sidereal Time
21:24:21
Azimuth
Unknown
Elevation
Unknown
Doppler factor
Unknown
Orbital elements
Apogee altitude
192.668 km
Perigee altitude
177.229 km
Semi-major axis
6,563.085 km
Eccentricity
0.00118
Inclination
42.9938°
RAAN
86.2521°
Arg. of periapsis
235.3878°
True anomaly
275.07306°
Mean anomaly
275.2073°
Eccentric anomaly
275.14018°
Mean motion
4.08208 °/min
Orbital period
88.19 mins
BSTAR
0.00061295
Loading maneuver chart data...
Computing Atmospheric mass density...
Loading historical data...
Loading historical data...
Loading historical data...
Loading historical data...
Loading historical data...
Loading historical data...
Loading historical data...

Documentation

Showing up to 5 results
|